[[{"header":{"parameterUnit":"m.s-1","parameterCategory":1,"la1":30.2991,"la2":30.254,"lo1":-89.0895,"lo2":-89.0444,"dy":0.0017,"dx":0.0017,"nx":28,"ny":28,"refTime":"2023-08-06T03:00:00:Z","depth":0,"parameterNumber":2,"parameterNumberName":"U-component_of_WINDS"},"data":[0,0,0,0,0,0,0,0,0,0,0,0,0,0,0,0,0,0,0,0,0,0,0,0,0,0,0,0,0,0,0,0,0,0,0,0,0,0,0,0,0,0,0,0,0,0,0,0,0,0,0,0,0,0,0,0,0,0,5.9295,5.9296,0,5.9395,5.9396,5.9397,5.9309,5.9305,5.9302,5.9298,5.9398,5.9404,5.941,0,0,0,0,0,0,0,0,0,0,0,0,0,5.9025,5.9031,5.9295,5.9297,5.9298,5.9394,5.9396,5.9397,5.9309,5.9305,5.9301,5.9296,5.9396,5.9403,5.941,0,0,0,0,0,0,0,0,0,0,0,0,0,5.9135,5.9032,5.9295,5.9266,5.9264,5.9394,5.9396,5.9398,5.931,5.9305,5.9299,5.9294,5.9394,5.9402,5.9411,5.9575,0,0,5.9439,5.9443,0,0,0,0,0,0,0,0,5.9129,5.9145,5.9269,5.9268,5.9266,5.9334,5.9337,5.9457,5.9312,5.9293,5.9298,5.9292,5.9381,5.939,5.9421,5.958,5.9584,5.9439,5.9445,5.9449,5.9451,0,0,0,0,0,0,0,5.9122,5.9141,5.9334,5.9271,5.9269,5.9246,5.9256,5.9359,5.9366,5.9294,5.9288,5.9301,5.9379,5.9412,5.9423,5.9585,5.9439,5.9447,5.9453,5.9456,5.9878,5.9883,0,0,0,0,0,0,5.9118,5.9135,5.9331,5.9337,5.9183,5.9255,5.9266,5.9318,5.9364,5.9366,5.9305,5.9296,5.94,5.9412,5.9426,5.9616,5.9449,5.9457,5.9462,5.9872,5.9879,5.9885,0,0,0,0,0,0,5.9112,5.9136,5.9327,5.9235,5.9257,5.9266,5.9324,5.9322,5.9356,5.9373,5.9373,5.9339,5.9396,5.9413,5.9537,5.9619,5.9461,5.9469,5.9865,5.9874,5.9882,6.0002,0,0,0,0,0,0,5.9105,5.9135,5.9198,5.9237,5.9262,5.9439,5.9329,5.9328,5.9372,5.9361,5.9404,5.9406,5.9393,5.9524,5.9546,5.9628,5.9477,5.9858,5.9869,5.988,5.999,6.0013,6.0033,0,0,0,0,0,5.9095,5.9228,5.9202,5.9226,5.9342,5.9444,5.9458,5.9441,5.9379,5.9441,5.9452,5.9405,5.9607,5.9538,5.9562,5.9648,5.9853,5.9866,5.9879,5.9981,6.0009,6.0033,0,0,0,0,0,0,5.9199,5.9233,5.9204,5.9354,5.9397,5.9429,5.9507,5.9472,5.9533,5.952,5.9496,5.9506,5.9637,5.9655,5.9577,5.9806,5.9719,5.9738,5.9789,5.9816,5.9837,5.9828,5.9484,0,0,0,0,0,5.924,5.9321,5.9345,5.9475,5.9498,5.95,5.9543,5.9526,5.9569,5.9587,5.9606,5.9649,5.9722,5.977,5.9839,5.9994,5.9999,6.0064,6.0086,6.0103,6.0118,6.0197,6.0224,5.9928,5.9928,5.9928,0,0,5.9324,5.9352,5.9405,5.9496,5.9528,5.961,5.9515,5.9607,5.9667,5.96,5.9718,5.9734,5.978,5.9919,5.9982,5.9939,6.0201,6.012,6.0133,6.0139,6.0213,6.0241,6.0266,5.9937,5.9935,5.9934,0,0,5.9517,5.9549,5.9658,5.9691,5.9739,5.9739,5.9766,5.9803,5.9811,5.9929,5.9879,5.995,6.0077,6.011,6.0144,6.0348,6.0305,6.0371,6.0481,6.0558,6.0581,6.0602,6.067,6.0696,6.0387,6.0387,6.0388,0,5.9615,5.9738,5.9719,5.9813,5.9853,5.9797,5.9905,5.9938,6.0007,6.0035,5.9986,6.0141,6.0169,6.0313,6.0362,6.0393,6.0419,6.0365,6.058,6.06,6.0619,6.0684,6.071,6.0395,6.0394,6.0393,6.0392,0,5.9854,5.994,6.0022,6.0088,6.0138,6.024,6.0233,6.0286,6.0264,6.0268,6.0386,6.0417,6.0489,6.0522,6.0503,6.0663,6.0634,6.0584,6.0495,6.0655,6.0715,6.074,6.0405,6.0403,6.04,6.0399,0,0,6.0115,6.0168,6.0198,6.0226,6.0274,6.0339,6.0437,6.0507,6.055,6.0599,6.0678,6.0785,6.0738,6.0776,6.0759,6.0828,6.0982,6.0768,6.0768,6.0803,6.1154,6.1189,6.1219,6.0955,6.096,6.0964,6.1149,0,6.0308,6.0477,6.0461,6.0621,6.0698,6.0645,6.0729,6.0767,6.0773,6.0838,6.0844,6.0919,6.0853,6.0875,6.0941,6.0949,6.1051,6.0936,6.1024,6.1028,6.1011,6.1251,6.1289,6.1462,6.1173,6.1177,6.118,0,6.0555,6.0611,6.0778,6.0811,6.0843,6.0919,6.098,6.1044,6.1084,6.1083,6.1125,6.1096,6.1191,6.1104,6.1232,6.1154,6.119,6.1199,6.1205,6.121,6.1111,6.1258,6.1518,6.1542,6.1218,6.1215,6.1212,0,6.0723,6.0841,6.0955,6.0981,6.1024,6.1078,6.1098,6.1133,6.1175,6.1228,6.1254,6.1318,6.1352,6.1401,6.1389,6.1327,6.1519,6.1431,6.1518,6.1518,6.1558,6.1555,6.1824,6.1589,6.1588,6.1588,6.1587,0,6.0937,6.104,6.103,6.11,6.1214,6.1194,6.1306,6.1319,6.1351,6.142,6.138,6.1446,6.1427,6.1492,6.1484,6.1589,6.1606,6.1606,6.1601,6.1607,6.1606,6.1627,6.1613,6.1595,6.1593,6.1592,6.1591,0,6.1143,6.1141,6.1261,6.1291,6.1301,6.1383,6.1407,6.1472,6.1475,6.1563,6.1583,6.1587,6.166,6.1654,6.1737,6.1731,6.186,6.1844,6.1846,6.1841,6.1927,6.1917,6.2214,6.225,6.1996,6.1998,6.2001,0,6.1277,6.1355,6.1394,6.1437,6.1461,6.1533,6.1574,6.1558,6.1603,6.1653,6.1711,6.1781,6.1835,6.1955,6.1964,6.2027,6.2009,6.2109,6.2018,6.2019,6.2005,6.1998,6.2004,6.2125,6.2128,6.213,6.2132,0,6.1515,6.151,6.1572,6.1634,6.1685,6.1733,6.1776,6.1814,6.1801,6.1853,6.1928,6.197,6.2054,6.2123,6.2182,6.22,6.2163,6.2161,6.2184,6.2188,6.2185,6.2183,6.189,6.2154,6.2152,6.215,6.2149,6.2148,6.1686,6.1752,6.1788,6.1857,6.1888,6.1929,6.199,6.1999,6.2062,6.2128,6.2115,6.2198,6.2233,6.2308,6.2332,6.2395,6.2359,6.2393,6.2401,6.2408,6.2416,6.2178,6.2407,6.2406,6.2406,6.2405,6.2405,0,6.1918,6.1938,6.2003,6.2064,6.2118,6.208,6.2125,6.2172,6.2246,6.2282,6.2337,6.242,6.2486,6.25,6.2562,6.261,6.2594,6.2626,6.262,6.2624,6.2447,6.2419,6.2637,6.2637,6.2637,6.2637,6.2637,6.2637,6.2045,6.2151,6.215,6.227,6.2289,6.237,6.2399,6.2435,6.2463,6.2559,6.2613,6.2622,6.2648,6.2711,6.2769,6.2771,6.2794,6.2832,6.2827,6.2661,6.2637,6.2615,6.2588,6.2838,6.2839,6.2998,6.2999,6.3001]},{"header":{"parameterUnit":"m.s-1","parameterCategory":1,"la1":30.2991,"la2":30.254,"lo1":-89.0895,"lo2":-89.0444,"dy":0.0017,"dx":0.0017,"nx":28,"ny":28,"refTime":"2023-08-06T03:00:00:Z","depth":0,"parameterNumber":3,"parameterNumberName":"V-component_of_WINDS"},"data":[0,0,0,0,0,0,0,0,0,0,0,0,0,0,0,0,0,0,0,0,0,0,0,0,0,0,0,0,0,0,0,0,0,0,0,0,0,0,0,0,0,0,0,0,0,0,0,0,0,0,0,0,0,0,0,0,0,0,4.3067,4.3068,0,4.3184,4.3185,4.3186,4.3168,4.3166,4.3164,4.3162,4.3278,4.3283,4.3288,0,0,0,0,0,0,0,0,0,0,0,0,0,4.2823,4.2828,4.3067,4.3068,4.307,4.3184,4.3185,4.3187,4.3168,4.3166,4.3164,4.3161,4.3276,4.3282,4.3288,0,0,0,0,0,0,0,0,0,0,0,0,0,4.2934,4.283,4.3067,4.3075,4.3076,4.3183,4.3185,4.3187,4.3169,4.3166,4.3163,4.316,4.3274,4.3282,4.3289,4.3394,0,0,4.3312,4.3315,0,0,0,0,0,0,0,0,4.2927,4.2942,4.3072,4.3074,4.3077,4.3158,4.3142,4.3256,4.317,4.3134,4.3162,4.3159,4.324,4.325,4.3279,4.34,4.3405,4.3312,4.3317,4.332,4.3322,0,0,0,0,0,0,0,4.292,4.2937,4.3113,4.3074,4.3077,4.3071,4.3083,4.3163,4.3202,4.3137,4.3136,4.315,4.3241,4.3272,4.3281,4.3406,4.3312,4.3319,4.3323,4.3326,4.3617,4.362,0,0,0,0,0,0,4.291,4.2931,4.3109,4.3117,4.2993,4.3077,4.3091,4.3135,4.3201,4.3209,4.3152,4.3149,4.326,4.3273,4.3285,4.3412,4.332,4.3327,4.3331,4.3614,4.3618,4.3621,0,0,0,0,0,0,4.2905,4.2927,4.3105,4.3024,4.3046,4.3085,4.3134,4.3139,4.317,4.3213,4.322,4.3177,4.3259,4.3275,4.3367,4.3415,4.333,4.3337,4.361,4.3615,4.3619,4.3666,0,0,0,0,0,0,4.2898,4.2925,4.2967,4.3025,4.305,4.3186,4.3137,4.3143,4.3183,4.3179,4.3238,4.3245,4.3258,4.3356,4.3374,4.3424,4.3343,4.3606,4.3612,4.3618,4.366,4.3672,4.3682,0,0,0,0,0,4.289,4.2975,4.2969,4.299,4.3104,4.3189,4.3203,4.3218,4.3187,4.3228,4.3256,4.3243,4.3407,4.3366,4.3386,4.3439,4.3603,4.361,4.3617,4.3655,4.3669,4.3681,0,0,0,0,0,0,4.292,4.2982,4.2977,4.3083,4.3131,4.3186,4.3239,4.3232,4.3289,4.3283,4.3297,4.331,4.3403,4.343,4.3383,4.3543,4.35,4.3512,4.3522,4.3536,4.3546,4.3538,4.3349,0,0,0,0,0,4.294,4.3005,4.3055,4.3144,4.3169,4.32,4.3237,4.3244,4.3294,4.3314,4.3348,4.3395,4.3457,4.3498,4.3558,4.3664,4.3675,4.371,4.372,4.3729,4.3739,4.3795,4.381,4.3646,4.3645,4.3645,0,0,4.298,4.3022,4.3062,4.3152,4.3189,4.3255,4.3217,4.3289,4.3337,4.3324,4.3413,4.344,4.3494,4.3593,4.3638,4.3618,4.3787,4.3739,4.3745,4.375,4.3804,4.382,4.3834,4.3651,4.365,4.3649,0,0,4.3087,4.3126,4.3203,4.3242,4.33,4.332,4.3338,4.3394,4.3412,4.3501,4.3492,4.3549,4.3657,4.3695,4.3728,4.3848,4.3837,4.3867,4.3923,4.3977,4.399,4.4002,4.4043,4.4058,4.3876,4.3877,4.3877,0,4.3129,4.323,4.3244,4.3317,4.3355,4.3347,4.3425,4.3461,4.3535,4.3561,4.3538,4.3671,4.3707,4.3814,4.3843,4.3871,4.3891,4.386,4.3987,4.3999,4.401,4.4049,4.4065,4.388,4.3879,4.3879,4.3879,0,4.3278,4.3347,4.3403,4.3476,4.352,4.3595,4.3619,4.3662,4.3665,4.3686,4.3776,4.3819,4.3886,4.3912,4.3915,4.4019,4.4005,4.3984,4.3942,4.4029,4.4066,4.4081,4.3884,4.3883,4.3882,4.3881,0,0,4.3408,4.3487,4.3507,4.3539,4.3601,4.3655,4.3728,4.3795,4.3831,4.3882,4.3942,4.4033,4.4014,4.4052,4.4058,4.4106,4.4196,4.408,4.4081,4.4099,4.4312,4.4326,4.4343,4.419,4.4193,4.4195,4.4307,0,4.352,4.3651,4.3665,4.3782,4.3845,4.3837,4.3901,4.3945,4.3967,4.4022,4.4045,4.4109,4.408,4.4102,4.4149,4.4175,4.4239,4.4168,4.4245,4.4247,4.4231,4.4363,4.4379,4.4483,4.4321,4.4324,4.4326,0,4.3668,4.3724,4.3847,4.3899,4.3926,4.3984,4.4045,4.4099,4.4148,4.416,4.4202,4.4202,4.4275,4.423,4.4331,4.4282,4.4314,4.4331,4.4335,4.4342,4.4291,4.4373,4.4516,4.4531,4.4349,4.4347,4.4346,0,4.3749,4.3855,4.3942,4.397,4.4033,4.4073,4.4101,4.4148,4.4186,4.4239,4.4264,4.4325,4.4358,4.4404,4.4419,4.4385,4.4518,4.4475,4.4529,4.4529,4.4557,4.4555,4.4707,4.4579,4.4579,4.4579,4.4578,0,4.3873,4.3948,4.3979,4.4032,4.4115,4.413,4.4211,4.4237,4.4278,4.4335,4.4331,4.4384,4.4402,4.4458,4.447,4.455,4.4565,4.4576,4.4578,4.4576,4.4575,4.4597,4.459,4.4583,4.4582,4.4581,4.458,0,4.3977,4.4001,4.4095,4.4147,4.4162,4.4221,4.4265,4.4315,4.4336,4.4407,4.4425,4.4457,4.4522,4.4542,4.462,4.4628,4.4722,4.4718,4.4705,4.4705,4.4758,4.4752,4.4929,4.4952,4.481,4.4811,4.4812,0,4.4054,4.4112,4.417,4.4208,4.4238,4.43,4.4339,4.4355,4.4396,4.4455,4.4498,4.4563,4.4615,4.4719,4.4748,4.4807,4.4804,4.4861,4.4813,4.4808,4.4803,4.4799,4.4804,4.487,4.4872,4.4873,4.4874,0,4.4187,4.4196,4.4253,4.4315,4.4362,4.4411,4.4458,4.4489,4.4512,4.4557,4.4624,4.4665,4.4745,4.4808,4.4868,4.4895,4.4888,4.4889,4.4905,4.4903,4.4893,4.4898,4.4729,4.4885,4.4884,4.4883,4.4882,4.4882,4.4279,4.4329,4.4378,4.4442,4.4479,4.4523,4.4572,4.4599,4.4655,4.4722,4.4728,4.4799,4.4845,4.4925,4.4955,4.501,4.4993,4.5016,4.5021,4.5027,4.503,4.4884,4.5021,4.5021,4.502,4.502,4.502,0,4.4411,4.4442,4.45,4.4567,4.4616,4.4606,4.4657,4.4699,4.4763,4.4806,4.4858,4.4934,4.4995,4.5028,4.5089,4.5126,4.5124,4.5141,4.5138,4.5144,4.5042,4.5023,4.5142,4.5142,4.5142,4.5142,4.5142,4.5142,4.4485,4.457,4.4584,4.4685,4.4715,4.4786,4.4816,4.4856,4.4891,4.4976,4.5027,4.5049,4.5088,4.5151,4.5205,4.5213,4.5235,4.5254,4.526,4.5164,4.5152,4.514,4.5121,4.5259,4.5259,4.5357,4.5358,4.5359]}]]